Find Starlink 31535

NORAD ID: 59504 Int'l Des: 2024-071 Owner: SPXS Country: US Constellation: starlink operational
LEOCIRCULAR

Current View

Loading 3D Globe...

About Starlink 31535

Starlink 31535 (NORAD 59504) is a starlink constellation satellite (v2 mini) launched Apr 13, 2024 by SPXS of US. It operates in LEO, CIRCULAR orbit with a mass of 730.00 kg.

Upcoming Passes

Passes for default location (London). Set your location on the main map for personalized predictions.

Altitude History

Loading altitude history...

Two-Line Element Set

1 59504U 24071W 26264.24622547 .00000125 00000-0 14059-4 0 9990
2 59504 43.0043 323.1128 0001288 260.2549 99.8158 15.27577083138025
Epoch: Sep 21, 2026 • Age: 15 hours

Current Status

Altitude 495.0 km
Apogee / Perigee N/A
Velocity 7.62 km/s
Sub-Earth Point -41.70°S, 72.07°W
Launch Date Apr 13, 2024
Age 2.4 years
Type internet

Technical Details

Classification Payload
Mass 730.00 kg
Dry Mass 700.00 kg
Length 0.30 m
Span 29.00 m
Shape ? Box + pan
Manufacturer SPXS
Bus Type Starlink V2M
Phase Status In Orbit
Owner/State SPXS/US

Most Searched